Вернуться в каталог

CRRES DEB

CANISTER

АктивенHEO
NORAD 29532·DEBRIS·🇺🇸 United States

Запущен Jul 25, 1990 с Cape Canaveral Space Force Station

Loading…

Ближайшие Пролёты (ближайшие 24 часа)

TLE

СвежийSource: Space-Track

Эпоха: Sep 9, 2026, 20:26 UTC

1 29532U 90065Z   26252.85159550  .00000980  00000-0  56868-3 0  9999
2 29532  17.7507  85.8813 6966696 328.1548   4.2014  2.65324584134932

Отслеживайте CRRES DEB в реальном времени с AllMySat

Download on the App Store